Regional Weather Roundup
Issued by NWS

Home | Current Version | Previous Version | Graphics & Text | Print | Product List | Glossary On
Versions: 1 2 3 4 5 6 7 8 9 10 11 12 13 14 15 16 17 18 19 20 21 22 23 24 25 26 27
000
ASUS45 KBOU 261907
RWRCO

WEATHER ROUNDUP FOR COLORADO
NATIONAL WEATHER SERVICE DENVER/BOULDER CO
100 PM MDT SUN MAR 26 2017

NOTE: "FAIR" INDICATES FEW OR NO CLOUDS BELOW 12000 FEET WITH NO
SIGNIFICANT WEATHER AND/OR OBSTRUCTIONS TO VISIBILITY.

COZ001>005-013-030-031-262000-
...NORTHWEST COLORADO...

CITY           SKY/WX    TMP DP  RH WIND       PRES   REMARKS
CRAIG          CLOUDY    47  28  47 SW9       30.02F
HAYDEN         PTSUNNY   43  28  56 SW6       30.03S
MEEKER         CLOUDY    45  27  49 VRB3      30.02S
MOUNT WERNER   NOT AVBL
STEAMBOAT SPGS CLOUDY    37  31  80 SW6       30.02S
WALDEN         NOT AVBL
$$

COZ006>008-011-262000-
...WEST CENTRAL VALLEYS...

CITY           SKY/WX    TMP DP  RH WIND       PRES   REMARKS
GRAND JUNCTION FAIR      55  32  41 W8        29.98S
MONTROSE       PTSUNNY   53  34  48 VRB7      30.00S
EAGLE          PTSUNNY   52  27  37 W7        29.97S
RIFLE          FAIR      55  28  35 W13       29.98S
DELTA          FAIR      61  29  29 W18G26    29.97R
NUCLA          CLOUDY    50  32  50 NW6       30.04S
$$

COZ017>023-064>068-262000-
...SOUTHWEST COLORADO...

CITY           SKY/WX    TMP DP  RH WIND       PRES   REMARKS
DURANGO        PTSUNNY   52  33  48 E7        29.97S
CORTEZ         CLOUDY    51  36  56 NW7       30.01S
PAGOSA SPRINGS PTSUNNY   44  32  61 SW9       30.01R
TELLURIDE      NOT AVBL
WOLF CREEK PAS SNOW      27  27 100 SW9       30.11R VSB<1/4 WCI  17
$$

COZ009-010-012-014-032>034-037-058>063-262000-
...CENTRAL COLORADO...

CITY           SKY/WX    TMP DP  RH WIND       PRES   REMARKS
ASPEN          PTSUNNY   44  28  53 NW5       29.96S
BUENA VISTA    FAIR      53  15  22 N13G23    29.89S
COPPER MTN     NOT AVBL
BERTHOUD PASS  CLOUDY    21  10  63 N13G26    30.02R WCI   9
COTTONWOOD PAS PTSUNNY   50  14  23 CALM      29.96R
GUNNISON       LGT RAIN  44  30  57 SW12G20   29.96R
KREMMLING      CLOUDY    52  32  46 SW6       29.97S
LEADVILLE      CLOUDY    35  18  49 VRB5      29.97R WCI  31
MONARCH PASS   FLURRIES  28  27  93 W20       30.13R WCI  15
SALIDA         CLOUDY    54  21  27 S8        29.95S
SUNLIGHT       PTSUNNY  N/A N/A N/A SW7       30.09R
WILKERSON PASS LGT SNOW  32  27  80 E6        30.02R WCI  26
$$

COZ069>075-262000-
...SAN LUIS VALLEY/SANGRE DE CRISTO MOUNTAINS...

CITY           SKY/WX    TMP DP  RH WIND       PRES   REMARKS
ALAMOSA        PTSUNNY   50  29  44 VRB5      29.90S
LA VETA PASS   NOT AVBL
SAGUACHE       FAIR      52  25  35 N13G23    29.91S
$$

COZ035-036-038>040-262000-
...NORTHERN COLORADO FRONT RANGE...

CITY           SKY/WX    TMP DP  RH WIND       PRES   REMARKS
DENVER INTL AP PTSUNNY   50  34  54 NE12      29.90R
DMNS CITY PARK   N/A     50  34  53 NE13G23   29.91R
AURORA         NOT AVBL
FRONT RANGE AP PTSUNNY   50  32  50 NE7G20    29.91S
ERIE MUNI ARPT CLOUDY    52  35  51 NE7       29.90S
BOULDER MUN AP LGT RAIN  50  34  53 NE8       29.90R
CENTENNIAL     CLOUDY    48  30  49 NE13      29.90S
BROOMFIELD     NOT AVBL
FORT COLLINS   FAIR      53  36  52 E15       29.90S
LONGMONT       CLOUDY    54  37  52 NE9       29.92S
$$

COZ041-046-047-076>085-087-088-262000-
...PIKES PEAK/PALMER DIVIDE AND SOUTHERN FOOTHILLS...

CITY           SKY/WX    TMP DP  RH WIND       PRES   REMARKS
COLO. SPRINGS  PTSUNNY   53  33  46 N24G36    29.88S
A. F. ACADEMY  PTSUNNY   47  34  60 NW22G30   29.89S
SCHRIEVER AFB  FAIR      48  31  50 N25G32    29.89R
ELLICOTT         N/A    N/A N/A N/A NE23      29.87R
FALCON         FAIR      47  30  52 N16G24    29.91R
FORT CARSON    FAIR      54  33  45 N22G36    29.86R
LIMON          CLOUDY    44  36  73 N17       29.88S
MONUMENT HILL  CLOUDY    41  30  65 N13       29.93S
TRINIDAD       CLOUDY    50  37  61 N23G32    29.87R
$$

COZ042>045-048>051-090-091-262000-
...NORTHEAST COLORADO...

CITY           SKY/WX    TMP DP  RH WIND       PRES   REMARKS
GREELEY ARPT   CLOUDY    50  38  63 NE14      29.91S
AKRON          CLOUDY    49  35  58 N12       29.89S
BURLINGTON     CLOUDY    46  41  82 NE15      29.86S
WRAY           NOT AVBL
STERLING       CLOUDY    46  41  81 E6        29.89F
HOLYOKE        FAIR      52  41  66 N13       29.89F
FORT MORGAN    FAIR      53  34  49 SE5       29.90F
$$

COZ086-089-092>099-262000-
...SOUTHEAST COLORADO...

CITY           SKY/WX    TMP DP  RH WIND       PRES   REMARKS
PUEBLO         PTSUNNY   56  34  43 NE20      29.85R
LA JUNTA       CLOUDY    48  37  65 NE13      29.84R
LAMAR          CLOUDY    42  37  82 NE8       29.83R
SPRINGFIELD      N/A     43  35  73 NW23      29.80R
$$




USA.gov is the U.S. government's official web portal to all federal, state and local government web resources and services.